Weather in Kuks

Czech Republic     50°24′15″N   15°53′20″E
temp.,
°C
wind,
m/s
gust,
m/s
humid.,
%
clouds,
%
prec.,
mm/h
press.,
hPa
HPBL,
m
27 october, wed
wed2723:00+8ssw2477100 0.0 1025121
02:00+5ssw2296100 0.0 102617
05:00+4ssw2299100 0.0 102620
08:00+4s1299100 0.0 1027107
11:00+8ssw248897 0.0 1027355
14:00+11sw4670100 0.0 1026640
17:00+10sw2476100 0.0 1025107
20:00+7ssw118583 0.0 102610
28 october, thu
thu2823:00+6sse118619 0.0 102710
02:00+6sse11886 0.0 102610
05:00+5sse11887 0.0 102610
08:00+5se11885 0.0 102610
11:00+11s24645 0.0 1025344
14:00+13s46495 0.0 1023667
17:00+11sse35620 0.0 1023110
20:00+7sse22715 0.0 102314
29 october, fri
fri2923:00+5sse116711 0.0 102312
02:00+4s13666 0.0 102236
05:00+4s23675 0.0 102143
08:00+3s24687 0.0 102162
11:00+9s6134873 0.0 1019701
14:00+13sse71343100 0.0 1017873
17:00+11sse6145096 0.0 1016703
20:00+9s7165452 0.0 1016716
30 october, sat
sat3023:00+8s7165810 0.0 1016691
02:00+7s513664 0.0 1015487
05:00+6s4117329 0.0 1016308
08:00+5ssw41075100 0.0 1017318
11:00+8s3566100 0.0 1019471
14:00+10s4559100 0.0 1019562
17:00+9s37685 0.0 1019236
20:00+6se118132 0.0 102011
31 october, sun
sun3123:00+6nnw018354 0.0 101910
02:00+6nne1180100 0.0 101711
04:00+6sse2381100 0.0 101463
07:00+7ssw41179100 0.0 1013467
10:00+11s697226 0.0 1011705
13:00+14ssw686037 0.0 1009835
16:00+12s4973100 0.0 1008348
19:00+11s3983100 0.0 1008261